[[{"header":{"parameterUnit":"m.s-1","parameterCategory":1,"la1":30.2991,"la2":30.254,"lo1":-89.0895,"lo2":-89.0444,"dy":0.0017,"dx":0.0017,"nx":28,"ny":28,"refTime":"2024-09-01T21:00:00:Z","depth":0,"parameterNumber":2,"parameterNumberName":"U-component_of_WINDS"},"data":[0,0,0,0,0,0,0,0,0,0,0,0,0,0,0,0,0,0,0,0,0,0,0,0,0,0,0,0,0,0,0,0,0,0,0,0,0,0,0,0,0,0,0,0,0,0,0,0,0,0,0,0,0,0,0,0,0,0,0.2823,0.2824,0,0.2974,0.2976,0.2977,0.3023,0.3022,0.3022,0.3021,0.3174,0.3178,0.3183,0,0,0,0,0,0,0,0,0,0,0,0,0,0.2568,0.2573,0.2822,0.2824,0.2826,0.2974,0.2976,0.2978,0.3023,0.3022,0.3021,0.3021,0.3172,0.3178,0.3183,0,0,0,0,0,0,0,0,0,0,0,0,0,0.2695,0.2574,0.2822,0.2867,0.2872,0.2973,0.2976,0.2978,0.3023,0.3022,0.3021,0.302,0.317,0.3177,0.3184,0.3251,0,0,0.3206,0.3209,0,0,0,0,0,0,0,0,0.2688,0.2704,0.2858,0.2864,0.287,0.2978,0.2942,0.307,0.3024,0.2966,0.3021,0.302,0.3109,0.3121,0.3152,0.3258,0.3264,0.3207,0.3211,0.3214,0.3216,0,0,0,0,0,0,0,0.2679,0.2698,0.2882,0.286,0.2868,0.2878,0.2894,0.2966,0.3042,0.2971,0.2975,0.2992,0.3112,0.3145,0.3156,0.3267,0.3206,0.3213,0.3217,0.322,0.343,0.3431,0,0,0,0,0,0,0.2663,0.269,0.2878,0.2887,0.2774,0.2883,0.2902,0.2945,0.3041,0.3055,0.2993,0.2994,0.3134,0.3148,0.3162,0.3244,0.3214,0.3221,0.3225,0.3429,0.343,0.3432,0,0,0,0,0,0,0.2657,0.2679,0.2871,0.279,0.2815,0.2889,0.2937,0.2948,0.2981,0.3058,0.3071,0.3013,0.3133,0.3152,0.3227,0.325,0.3224,0.323,0.3427,0.3429,0.3431,0.341,0,0,0,0,0,0,0.265,0.2677,0.2705,0.279,0.2819,0.2936,0.2938,0.2952,0.2994,0.2996,0.308,0.3093,0.3134,0.3217,0.3235,0.3259,0.3236,0.3426,0.3428,0.343,0.3409,0.341,0.3412,0,0,0,0,0,0.2641,0.2693,0.2706,0.2728,0.2855,0.2938,0.2954,0.3,0.2996,0.3023,0.3071,0.309,0.3244,0.3224,0.3245,0.3272,0.3424,0.3427,0.343,0.3408,0.341,0.3412,0,0,0,0,0,0,0.2608,0.2705,0.272,0.2802,0.2861,0.2945,0.2981,0.3002,0.3063,0.3063,0.3117,0.3135,0.3207,0.3247,0.3223,0.3339,0.3335,0.3342,0.331,0.3313,0.3315,0.3304,0.3242,0,0,0,0,0,0.2611,0.2671,0.2751,0.2815,0.2844,0.2907,0.2945,0.2975,0.3038,0.3063,0.3118,0.3177,0.3239,0.3278,0.3339,0.3414,0.3431,0.3442,0.3444,0.3445,0.3451,0.349,0.3495,0.3441,0.3441,0.3441,0,0,0.2616,0.2676,0.2711,0.281,0.286,0.2919,0.2928,0.2991,0.3035,0.3073,0.3148,0.3189,0.3259,0.3333,0.3369,0.3369,0.3469,0.3449,0.3449,0.3454,0.3493,0.3498,0.3503,0.3443,0.3443,0.3443,0,0,0.2656,0.2709,0.2767,0.2815,0.289,0.2931,0.2944,0.3024,0.3053,0.3129,0.3158,0.3209,0.3315,0.3362,0.34,0.3454,0.3473,0.3472,0.3481,0.3519,0.3523,0.3527,0.3544,0.3549,0.3477,0.3477,0.3477,0,0.2654,0.2745,0.2794,0.2854,0.2896,0.2932,0.2989,0.3034,0.3124,0.3151,0.315,0.328,0.333,0.3415,0.3427,0.3457,0.3473,0.3463,0.3518,0.3523,0.3527,0.3544,0.355,0.3476,0.3476,0.3476,0.3477,0,0.2737,0.28,0.2837,0.2922,0.2968,0.3027,0.3082,0.3122,0.3147,0.3187,0.3261,0.3322,0.3394,0.3416,0.3442,0.3503,0.3501,0.3508,0.3505,0.3531,0.3547,0.3554,0.3475,0.3476,0.3476,0.3476,0,0,0.2764,0.2873,0.2885,0.2923,0.3006,0.3054,0.3113,0.3184,0.3216,0.3275,0.3324,0.3411,0.3417,0.346,0.3491,0.3523,0.3558,0.3527,0.3529,0.3529,0.3627,0.362,0.3627,0.3571,0.3572,0.3574,0.362,0,0.2813,0.2921,0.2964,0.305,0.3107,0.314,0.3191,0.3246,0.3284,0.3336,0.3377,0.3437,0.3442,0.3468,0.3502,0.3547,0.3579,0.3544,0.3615,0.3617,0.3596,0.3636,0.363,0.3671,0.3627,0.3628,0.3629,0,0.2886,0.2946,0.3037,0.311,0.3136,0.3181,0.3247,0.3297,0.3358,0.3383,0.3429,0.3457,0.3517,0.3509,0.3591,0.3566,0.3597,0.3623,0.3626,0.3635,0.3625,0.3644,0.3686,0.3692,0.364,0.3639,0.3639,0,0.2893,0.2997,0.3064,0.3096,0.3183,0.3213,0.3251,0.3311,0.335,0.3407,0.3432,0.3495,0.3529,0.3577,0.362,0.3611,0.3696,0.3693,0.3717,0.3716,0.3734,0.3732,0.3781,0.3755,0.3755,0.3755,0.3755,0,0.2944,0.2998,0.3068,0.311,0.3171,0.3218,0.3277,0.3316,0.3369,0.3417,0.3449,0.3493,0.3548,0.3598,0.3632,0.3693,0.3708,0.3729,0.3737,0.3726,0.3723,0.3747,0.3745,0.3756,0.3756,0.3756,0.3755,0,0.2963,0.3012,0.3088,0.3163,0.3183,0.3225,0.3288,0.3328,0.3367,0.3427,0.3443,0.3503,0.3564,0.3611,0.369,0.3712,0.3776,0.3786,0.3755,0.376,0.3781,0.3777,0.3846,0.3856,0.3824,0.3824,0.3824,0,0.2992,0.3034,0.3113,0.3148,0.3185,0.3241,0.328,0.3327,0.3366,0.3437,0.3468,0.353,0.3583,0.3677,0.3727,0.3786,0.3797,0.3816,0.3806,0.3792,0.3795,0.3792,0.3795,0.3817,0.3817,0.3818,0.3818,0,0.3036,0.3058,0.3114,0.3177,0.3223,0.3275,0.3327,0.3353,0.3409,0.3451,0.3513,0.3554,0.3633,0.3694,0.3757,0.3794,0.3814,0.382,0.3829,0.3818,0.3798,0.3807,0.3758,0.3819,0.3819,0.3819,0.3819,0.3818,0.3061,0.3099,0.316,0.322,0.3264,0.3311,0.3352,0.3395,0.3448,0.3516,0.354,0.3603,0.366,0.3748,0.3784,0.3833,0.3834,0.3847,0.385,0.3852,0.385,0.379,0.3844,0.3845,0.3845,0.3845,0.3845,0,0.3106,0.3146,0.3201,0.3273,0.3319,0.3334,0.3392,0.3429,0.3485,0.3536,0.3587,0.3656,0.3714,0.3767,0.3827,0.3855,0.3866,0.3869,0.3867,0.3875,0.3846,0.3832,0.3859,0.3859,0.3859,0.3859,0.3859,0.3859,0.3135,0.3199,0.3227,0.3313,0.3353,0.3415,0.3446,0.3489,0.3531,0.3607,0.3655,0.3689,0.3741,0.3804,0.3857,0.387,0.389,0.3891,0.3907,0.3879,0.3877,0.3875,0.3862,0.3895,0.3895,0.3932,0.3932,0.3932]},{"header":{"parameterUnit":"m.s-1","parameterCategory":1,"la1":30.2991,"la2":30.254,"lo1":-89.0895,"lo2":-89.0444,"dy":0.0017,"dx":0.0017,"nx":28,"ny":28,"refTime":"2024-09-01T21:00:00:Z","depth":0,"parameterNumber":3,"parameterNumberName":"V-component_of_WINDS"},"data":[0,0,0,0,0,0,0,0,0,0,0,0,0,0,0,0,0,0,0,0,0,0,0,0,0,0,0,0,0,0,0,0,0,0,0,0,0,0,0,0,0,0,0,0,0,0,0,0,0,0,0,0,0,0,0,0,0,0,1.9217,1.9217,0,1.923,1.923,1.923,1.9209,1.9208,1.9208,1.9207,1.9218,1.9219,1.9219,0,0,0,0,0,0,0,0,0,0,0,0,0,1.9171,1.9172,1.9217,1.9217,1.9218,1.923,1.923,1.923,1.9209,1.9208,1.9207,1.9207,1.9217,1.9218,1.922,0,0,0,0,0,0,0,0,0,0,0,0,0,1.9188,1.9172,1.9217,1.9209,1.9208,1.923,1.923,1.923,1.9209,1.9208,1.9207,1.9206,1.9217,1.9218,1.922,1.925,0,0,1.9224,1.9225,0,0,0,0,0,0,0,0,1.9187,1.919,1.921,1.9209,1.9209,1.9217,1.9218,1.9237,1.921,1.9209,1.9207,1.9206,1.9218,1.9219,1.9224,1.9251,1.9251,1.9224,1.9225,1.9226,1.9226,0,0,0,0,0,0,0,1.9186,1.9189,1.9222,1.921,1.9209,1.9203,1.9204,1.9221,1.9219,1.9209,1.9207,1.9209,1.9218,1.9223,1.9224,1.9251,1.9224,1.9225,1.9226,1.9227,1.93,1.9301,0,0,0,0,0,0,1.9186,1.9188,1.9222,1.9223,1.9195,1.9205,1.9206,1.9215,1.9219,1.9219,1.921,1.9208,1.9221,1.9222,1.9224,1.9258,1.9226,1.9227,1.9228,1.9299,1.93,1.9301,0,0,0,0,0,0,1.9185,1.9189,1.9221,1.9205,1.9209,1.9207,1.9217,1.9216,1.9221,1.922,1.9219,1.9216,1.922,1.9222,1.9243,1.9258,1.9228,1.9229,1.9298,1.9299,1.9301,1.9326,0,0,0,0,0,0,1.9184,1.9189,1.9202,1.9206,1.921,1.9241,1.9218,1.9217,1.9224,1.9222,1.9225,1.9225,1.9219,1.9241,1.9245,1.9259,1.923,1.9296,1.9298,1.93,1.9324,1.9328,1.9332,0,0,0,0,0,1.9183,1.9208,1.9203,1.9207,1.9225,1.9242,1.9244,1.9238,1.9225,1.9237,1.9236,1.9225,1.9256,1.9244,1.9247,1.9262,1.9295,1.9298,1.93,1.9322,1.9327,1.9332,0,0,0,0,0,0,1.9206,1.9209,1.9202,1.9231,1.9236,1.9239,1.9253,1.9245,1.9253,1.9251,1.9242,1.9243,1.9265,1.9266,1.9252,1.929,1.9273,1.9277,1.9288,1.9294,1.9298,1.9296,1.9231,0,0,0,0,0,1.9215,1.9229,1.923,1.9255,1.9258,1.9255,1.9262,1.9257,1.9262,1.9264,1.9265,1.927,1.928,1.9288,1.9298,1.9324,1.9323,1.9336,1.9341,1.9344,1.9346,1.9358,1.9363,1.9309,1.9309,1.9309,0,0,1.9232,1.9236,1.9245,1.926,1.9264,1.9277,1.9257,1.9273,1.9282,1.9267,1.9286,1.9286,1.9291,1.9314,1.9324,1.9316,1.9361,1.9347,1.935,1.935,1.9361,1.9366,1.937,1.9311,1.9311,1.9311,0,0,1.927,1.9276,1.9295,1.9299,1.9305,1.9303,1.9308,1.9311,1.9311,1.933,1.9318,1.9328,1.9348,1.9351,1.9355,1.9393,1.9382,1.9396,1.9417,1.9428,1.9432,1.9436,1.9447,1.9451,1.9399,1.9399,1.9399,0,1.9291,1.9312,1.9306,1.9322,1.9327,1.9315,1.9333,1.9337,1.9346,1.9349,1.934,1.9362,1.9365,1.9387,1.9396,1.9401,1.9404,1.9395,1.9432,1.9436,1.9439,1.9449,1.9454,1.94,1.94,1.94,1.94,0,1.9335,1.935,1.9364,1.9373,1.9381,1.9398,1.9393,1.9402,1.9396,1.9394,1.9412,1.9415,1.9424,1.9429,1.9424,1.945,1.9444,1.9434,1.9416,1.9446,1.9455,1.9459,1.9403,1.9402,1.9402,1.9401,0,0,1.9387,1.9392,1.9397,1.94,1.9405,1.9415,1.9431,1.9441,1.9446,1.9453,1.9464,1.948,1.947,1.9475,1.947,1.948,1.9506,1.9468,1.9468,1.9473,1.9532,1.9538,1.9543,1.95,1.9501,1.9502,1.9531,0,1.9423,1.945,1.9445,1.9471,1.9482,1.947,1.9483,1.9487,1.9486,1.9495,1.9493,1.9503,1.9491,1.9493,1.9503,1.9501,1.9518,1.9499,1.9508,1.9509,1.9505,1.9548,1.9555,1.9582,1.9535,1.9535,1.9536,0,1.9467,1.9475,1.9502,1.9503,1.9508,1.952,1.9527,1.9537,1.954,1.9538,1.9543,1.9535,1.9549,1.9533,1.9551,1.9538,1.9542,1.9541,1.9542,1.9541,1.9522,1.9545,1.9591,1.9594,1.9542,1.9542,1.9541,0,1.9499,1.9516,1.9534,1.9537,1.954,1.9548,1.955,1.9552,1.9557,1.9563,1.9566,1.9574,1.9577,1.9583,1.9577,1.9566,1.9594,1.9579,1.9591,1.9591,1.9596,1.9595,1.964,1.9603,1.9603,1.9603,1.9603,0,1.9537,1.9553,1.9547,1.9558,1.9575,1.9569,1.9586,1.9586,1.9588,1.9597,1.9588,1.9597,1.959,1.9597,1.9593,1.9607,1.9609,1.9607,1.9605,1.9606,1.9606,1.9606,1.9603,1.9604,1.9603,1.9603,1.9603,0,1.9573,1.9571,1.9589,1.959,1.9591,1.9603,1.9603,1.9612,1.9611,1.9622,1.9625,1.9621,1.963,1.9625,1.9634,1.9631,1.9648,1.9645,1.9647,1.9645,1.9657,1.9655,1.9702,1.9707,1.9668,1.9669,1.9669,0,1.9597,1.9609,1.9611,1.9617,1.9619,1.9628,1.9633,1.9628,1.9633,1.9637,1.9645,1.9653,1.9659,1.9673,1.967,1.9677,1.9672,1.9688,1.9673,1.9673,1.9669,1.9667,1.9667,1.969,1.9691,1.9691,1.9691,0,1.9637,1.9634,1.9642,1.9649,1.9656,1.9661,1.9665,1.967,1.9665,1.9671,1.968,1.9684,1.9693,1.97,1.9705,1.9705,1.9697,1.9697,1.9699,1.9699,1.9699,1.9697,1.9652,1.9695,1.9695,1.9694,1.9694,1.9694,1.9665,1.9674,1.9677,1.9685,1.9688,1.9692,1.97,1.9699,1.9706,1.9713,1.9709,1.9719,1.9721,1.9727,1.9728,1.9735,1.9728,1.9733,1.9734,1.9734,1.9735,1.97,1.9736,1.9736,1.9736,1.9736,1.9736,0,1.9702,1.9703,1.9711,1.9717,1.9724,1.9716,1.9721,1.9726,1.9734,1.9737,1.9743,1.9752,1.9759,1.9757,1.9763,1.9768,1.9764,1.977,1.9768,1.9767,1.9742,1.9737,1.9772,1.9772,1.9772,1.9772,1.9772,1.9772,1.9722,1.9736,1.9734,1.9749,1.975,1.9759,1.9762,1.9765,1.9767,1.9778,1.9783,1.9782,1.9783,1.9788,1.9794,1.9793,1.9794,1.9801,1.9798,1.9773,1.977,1.9766,1.9762,1.9802,1.9802,1.9823,1.9823,1.9823]}]]